[[{"header":{"parameterUnit":"m.s-1","parameterCategory":1,"la1":30.2991,"la2":30.254,"lo1":-89.0895,"lo2":-89.0444,"dy":0.0017,"dx":0.0017,"nx":28,"ny":28,"refTime":"2026-02-11T03:00:00:Z","depth":0,"parameterNumber":2,"parameterNumberName":"U-component_of_WINDS"},"data":[0,0,0,0,0,0,0,0,0,0,0,0,0,0,0,0,0,0,0,0,0,0,0,0,0,0,0,0,0,0,0,0,0,0,0,0,0,0,0,0,0,0,0,0,0,0,0,0,0,0,0,0,0,0,0,0,0,0,0.4855,0.4855,0,0.4822,0.4821,0.4821,0.4841,0.4842,0.4843,0.4844,0.4806,0.4804,0.4802,0,0,0,0,0,0,0,0,0,0,0,0,0,0.4934,0.4932,0.4855,0.4855,0.4854,0.4822,0.4821,0.4821,0.4841,0.4842,0.4843,0.4844,0.4807,0.4804,0.4802,0,0,0,0,0,0,0,0,0,0,0,0,0,0.49,0.4932,0.4855,0.486,0.4861,0.4822,0.4821,0.4821,0.4841,0.4842,0.4844,0.4845,0.4807,0.4805,0.4802,0.4755,0,0,0.4793,0.4792,0,0,0,0,0,0,0,0,0.4902,0.4897,0.486,0.486,0.486,0.4837,0.4835,0.4799,0.484,0.4848,0.4844,0.4846,0.4815,0.4812,0.4802,0.4753,0.4752,0.4793,0.4791,0.479,0.4789,0,0,0,0,0,0,0,0.4904,0.4899,0.4842,0.486,0.486,0.4864,0.4861,0.4828,0.4824,0.4848,0.4849,0.4845,0.4815,0.4805,0.4801,0.4751,0.4793,0.479,0.4789,0.4787,0.4664,0.4663,0,0,0,0,0,0,0.4907,0.49,0.4843,0.4841,0.4885,0.4861,0.4858,0.4843,0.4824,0.4823,0.4844,0.4846,0.4809,0.4805,0.48,0.4745,0.479,0.4787,0.4786,0.4666,0.4664,0.4662,0,0,0,0,0,0,0.4908,0.4901,0.4844,0.4871,0.4864,0.4858,0.4842,0.4842,0.4831,0.4821,0.482,0.4834,0.481,0.4804,0.4767,0.4744,0.4786,0.4783,0.4667,0.4665,0.4663,0.4635,0,0,0,0,0,0,0.491,0.4902,0.4884,0.4871,0.4863,0.4812,0.484,0.484,0.4827,0.4829,0.4812,0.481,0.4811,0.4771,0.4764,0.4741,0.4781,0.4669,0.4666,0.4664,0.4637,0.4631,0.4626,0,0,0,0,0,0.4913,0.4876,0.4883,0.4876,0.4841,0.4811,0.4806,0.4808,0.4825,0.4807,0.4801,0.4811,0.4748,0.4767,0.4759,0.4735,0.4671,0.4667,0.4664,0.464,0.4633,0.4627,0,0,0,0,0,0,0.4885,0.4874,0.4882,0.484,0.4826,0.4814,0.4792,0.48,0.478,0.4784,0.4786,0.4782,0.4743,0.4735,0.4757,0.469,0.4712,0.4707,0.4696,0.4689,0.4684,0.4687,0.4779,0,0,0,0,0,0.4875,0.4852,0.4843,0.4807,0.48,0.4797,0.4784,0.4787,0.4773,0.4766,0.4758,0.4742,0.4719,0.4704,0.4682,0.4637,0.4633,0.4616,0.4611,0.4606,0.4602,0.4578,0.4571,0.4651,0.4651,0.4651,0,0,0.4852,0.4843,0.4828,0.4801,0.4791,0.4767,0.4792,0.4765,0.4747,0.4762,0.4727,0.472,0.4703,0.4662,0.4643,0.4654,0.4579,0.4602,0.4598,0.4596,0.4574,0.4567,0.456,0.4648,0.4649,0.4649,0,0,0.4798,0.4789,0.4759,0.4749,0.4734,0.4732,0.4725,0.4712,0.4709,0.4674,0.4685,0.4663,0.4623,0.4611,0.46,0.4544,0.4553,0.4537,0.4508,0.4485,0.4479,0.4473,0.4454,0.4447,0.4532,0.4532,0.4532,0,0.4771,0.4737,0.4741,0.4715,0.4703,0.4717,0.4686,0.4676,0.4654,0.4645,0.4658,0.4609,0.4599,0.4556,0.4543,0.4532,0.4524,0.4539,0.448,0.4474,0.4469,0.4451,0.4444,0.453,0.4531,0.4531,0.4531,0,0.4705,0.4681,0.4658,0.4639,0.4624,0.4595,0.4596,0.458,0.4585,0.4582,0.4547,0.4535,0.4512,0.4502,0.4505,0.446,0.4467,0.448,0.4502,0.446,0.4443,0.4436,0.4528,0.4528,0.4529,0.4529,0,0,0.4631,0.4617,0.4609,0.4601,0.4586,0.4567,0.454,0.4519,0.4506,0.449,0.4467,0.4434,0.4447,0.4434,0.4436,0.4416,0.4374,0.4431,0.4431,0.4422,0.4324,0.4316,0.4307,0.438,0.4379,0.4378,0.4326,0,0.4577,0.453,0.4535,0.449,0.4468,0.4482,0.4458,0.4447,0.4444,0.4424,0.4421,0.4398,0.4415,0.4408,0.4389,0.4383,0.4355,0.4387,0.4358,0.4357,0.4363,0.4298,0.4288,0.424,0.4319,0.4318,0.4317,0,0.4508,0.4493,0.4446,0.4437,0.4428,0.4406,0.4389,0.437,0.4357,0.4357,0.4344,0.435,0.4322,0.4345,0.4307,0.4329,0.4317,0.4313,0.4311,0.4309,0.4335,0.4294,0.4225,0.4218,0.4307,0.4308,0.4308,0,0.446,0.4428,0.4396,0.4389,0.4377,0.4362,0.4356,0.4345,0.4333,0.4317,0.4309,0.4289,0.4278,0.4263,0.4264,0.428,0.4225,0.4248,0.4223,0.4223,0.4211,0.4212,0.4139,0.4203,0.4203,0.4203,0.4203,0,0.44,0.4371,0.4375,0.4356,0.4324,0.433,0.4298,0.4294,0.4284,0.4264,0.4274,0.4255,0.4257,0.4238,0.4238,0.4207,0.4201,0.42,0.42,0.4199,0.4199,0.4192,0.4195,0.4201,0.4202,0.4202,0.4202,0,0.4341,0.4342,0.4309,0.4302,0.4299,0.4276,0.427,0.4251,0.425,0.4224,0.4219,0.4216,0.4194,0.4194,0.4167,0.4168,0.413,0.4134,0.4135,0.4135,0.4111,0.4114,0.4031,0.4021,0.4091,0.409,0.409,0,0.4302,0.4281,0.4272,0.426,0.4254,0.4234,0.4222,0.4227,0.4214,0.42,0.4183,0.4162,0.4146,0.411,0.4105,0.4085,0.4089,0.4062,0.4086,0.4086,0.409,0.4091,0.4089,0.4057,0.4056,0.4055,0.4055,0,0.4234,0.4236,0.422,0.4204,0.419,0.4177,0.4165,0.4155,0.4159,0.4144,0.4122,0.411,0.4084,0.4064,0.4045,0.4038,0.4047,0.4047,0.4041,0.4039,0.4041,0.4041,0.4122,0.4049,0.405,0.405,0.405,0.405,0.4184,0.4166,0.4158,0.414,0.4132,0.4121,0.4104,0.4102,0.4085,0.4066,0.4069,0.4046,0.4035,0.4011,0.4003,0.3984,0.3994,0.3984,0.3981,0.3979,0.3977,0.4044,0.398,0.3981,0.3981,0.3981,0.3981,0,0.4117,0.4113,0.4096,0.4081,0.4066,0.4078,0.4066,0.4053,0.4032,0.4022,0.4007,0.3983,0.3963,0.3958,0.3939,0.3925,0.3928,0.392,0.3921,0.3919,0.3969,0.3977,0.3917,0.3917,0.3917,0.3917,0.3917,0.3917,0.408,0.4051,0.4053,0.4021,0.4017,0.3995,0.3988,0.3978,0.397,0.3943,0.3928,0.3925,0.3917,0.3898,0.3881,0.388,0.3873,0.3863,0.3863,0.3909,0.3916,0.3922,0.3929,0.3861,0.3861,0.3815,0.3815,0.3815]},{"header":{"parameterUnit":"m.s-1","parameterCategory":1,"la1":30.2991,"la2":30.254,"lo1":-89.0895,"lo2":-89.0444,"dy":0.0017,"dx":0.0017,"nx":28,"ny":28,"refTime":"2026-02-11T03:00:00:Z","depth":0,"parameterNumber":3,"parameterNumberName":"V-component_of_WINDS"},"data":[0,0,0,0,0,0,0,0,0,0,0,0,0,0,0,0,0,0,0,0,0,0,0,0,0,0,0,0,0,0,0,0,0,0,0,0,0,0,0,0,0,0,0,0,0,0,0,0,0,0,0,0,0,0,0,0,0,0,0.8203,0.8203,0,0.8207,0.8207,0.8207,0.8216,0.8216,0.8216,0.8217,0.8219,0.8219,0.8219,0,0,0,0,0,0,0,0,0,0,0,0,0,0.8205,0.8204,0.8203,0.8203,0.8203,0.8207,0.8207,0.8207,0.8216,0.8216,0.8216,0.8217,0.822,0.8219,0.8219,0,0,0,0,0,0,0,0,0,0,0,0,0,0.8206,0.8204,0.8203,0.8208,0.8209,0.8207,0.8207,0.8207,0.8216,0.8216,0.8217,0.8217,0.822,0.8219,0.8219,0.8212,0,0,0.8219,0.8219,0,0,0,0,0,0,0,0,0.8205,0.8205,0.8208,0.8208,0.8209,0.8211,0.8208,0.8209,0.8216,0.8213,0.8217,0.8217,0.8216,0.8217,0.8217,0.8212,0.8212,0.8219,0.8219,0.8219,0.8219,0,0,0,0,0,0,0,0.8205,0.8205,0.8205,0.8208,0.8208,0.821,0.8211,0.8208,0.8213,0.8213,0.8214,0.8214,0.8217,0.8217,0.8217,0.8212,0.8219,0.8219,0.8218,0.8218,0.8203,0.8202,0,0,0,0,0,0,0.8205,0.8205,0.8205,0.8205,0.8208,0.821,0.8211,0.821,0.8213,0.8214,0.8214,0.8215,0.8217,0.8217,0.8217,0.8209,0.8219,0.8218,0.8218,0.8203,0.8203,0.8202,0,0,0,0,0,0,0.8205,0.8205,0.8204,0.8205,0.8205,0.821,0.8209,0.821,0.821,0.8214,0.8215,0.8213,0.8217,0.8217,0.8213,0.8209,0.8218,0.8218,0.8203,0.8203,0.8202,0.8192,0,0,0,0,0,0,0.8205,0.8204,0.8202,0.8205,0.8205,0.8201,0.8209,0.821,0.821,0.8211,0.8213,0.8214,0.8217,0.8213,0.8213,0.8209,0.8218,0.8204,0.8203,0.8203,0.8193,0.8191,0.819,0,0,0,0,0,0.8205,0.8199,0.8202,0.8202,0.8202,0.8201,0.8201,0.8205,0.8209,0.8207,0.8209,0.8214,0.8209,0.8213,0.8213,0.8208,0.8204,0.8203,0.8203,0.8194,0.8192,0.819,0,0,0,0,0,0,0.8195,0.8199,0.8203,0.8198,0.8199,0.8202,0.8199,0.8203,0.8203,0.8204,0.8209,0.8209,0.8205,0.8206,0.821,0.8202,0.8208,0.8207,0.8201,0.8199,0.8198,0.8197,0.8218,0,0,0,0,0,0.8192,0.819,0.8194,0.819,0.819,0.8194,0.8194,0.8197,0.8198,0.8199,0.8201,0.8202,0.8201,0.82,0.8199,0.8193,0.8194,0.819,0.8189,0.8188,0.8187,0.8184,0.8182,0.82,0.82,0.82,0,0,0.8186,0.8188,0.8187,0.8188,0.8189,0.8187,0.8195,0.8192,0.8191,0.8199,0.8195,0.8197,0.8198,0.8193,0.8191,0.8194,0.8182,0.8187,0.8186,0.8185,0.8183,0.8181,0.8179,0.8199,0.8199,0.82,0,0,0.8174,0.8176,0.8172,0.8173,0.8175,0.8178,0.8177,0.818,0.8182,0.8179,0.8184,0.8183,0.8181,0.8182,0.8182,0.8171,0.8175,0.817,0.8163,0.816,0.8158,0.8157,0.8153,0.8151,0.817,0.817,0.817,0,0.8167,0.8165,0.817,0.8167,0.8167,0.8174,0.817,0.8171,0.8173,0.8172,0.8176,0.8174,0.8175,0.817,0.8168,0.8168,0.8167,0.817,0.8158,0.8157,0.8156,0.8152,0.815,0.8169,0.8169,0.8169,0.8169,0,0.8155,0.8153,0.815,0.8151,0.8151,0.8148,0.8153,0.8152,0.8155,0.8158,0.8154,0.8156,0.8156,0.8155,0.8159,0.8151,0.8153,0.8157,0.8163,0.8153,0.815,0.8148,0.8168,0.8168,0.8169,0.8169,0,0,0.8137,0.8141,0.814,0.8141,0.8144,0.8142,0.8139,0.8139,0.8138,0.8139,0.8137,0.8135,0.8139,0.8139,0.8143,0.814,0.8131,0.8145,0.8145,0.8142,0.8123,0.8119,0.8117,0.8134,0.8134,0.8134,0.8123,0,0.8126,0.8121,0.8126,0.812,0.8119,0.8125,0.8123,0.8124,0.8127,0.8126,0.8128,0.8127,0.8132,0.8133,0.813,0.8133,0.8127,0.8134,0.8132,0.8131,0.8131,0.8116,0.8112,0.8101,0.8121,0.8121,0.8121,0,0.8112,0.8112,0.8107,0.811,0.8109,0.8107,0.8107,0.8106,0.8108,0.811,0.811,0.8115,0.8112,0.8118,0.8114,0.8119,0.8118,0.8119,0.8119,0.8119,0.8125,0.8115,0.8098,0.8096,0.8119,0.8119,0.8119,0,0.8099,0.8098,0.8095,0.8095,0.8099,0.8097,0.8098,0.81,0.81,0.8101,0.81,0.81,0.81,0.81,0.8104,0.8108,0.81,0.8106,0.8101,0.8101,0.8099,0.8099,0.8082,0.8099,0.8099,0.8099,0.8099,0,0.8086,0.8082,0.8089,0.8087,0.8082,0.8088,0.8084,0.8086,0.8088,0.8086,0.8092,0.809,0.8096,0.8094,0.8098,0.8094,0.8094,0.8095,0.8096,0.8095,0.8094,0.8094,0.8095,0.8099,0.8099,0.8099,0.8099,0,0.807,0.8075,0.8071,0.8075,0.8076,0.8073,0.8076,0.8074,0.8077,0.8075,0.8075,0.8079,0.8078,0.8082,0.8082,0.8084,0.8079,0.8081,0.8078,0.8079,0.8073,0.8073,0.8055,0.8052,0.8072,0.8071,0.8071,0,0.8062,0.8059,0.8063,0.8062,0.8063,0.8062,0.8062,0.8067,0.8067,0.8069,0.8066,0.8066,0.8065,0.8063,0.8066,0.8066,0.8068,0.8062,0.8068,0.8067,0.8068,0.8068,0.8067,0.806,0.806,0.806,0.806,0,0.8045,0.8048,0.8047,0.8048,0.8047,0.8048,0.8049,0.8048,0.8054,0.8053,0.8052,0.8052,0.8051,0.8051,0.8051,0.8052,0.8057,0.8058,0.8056,0.8054,0.8053,0.8053,0.8074,0.8058,0.8058,0.8058,0.8058,0.8058,0.8033,0.8031,0.8033,0.8032,0.8034,0.8034,0.8033,0.8036,0.8035,0.8035,0.8038,0.8037,0.8039,0.804,0.8041,0.8039,0.8042,0.804,0.804,0.8039,0.8038,0.8053,0.8039,0.8039,0.8039,0.8039,0.804,0,0.8017,0.8019,0.8018,0.8019,0.8019,0.8023,0.8025,0.8024,0.8022,0.8024,0.8023,0.8022,0.8022,0.8025,0.8025,0.8023,0.8025,0.8023,0.8023,0.8023,0.8036,0.8037,0.8021,0.8021,0.8021,0.8021,0.8021,0.8021,0.8008,0.8005,0.8007,0.8005,0.8007,0.8005,0.8005,0.8006,0.8007,0.8006,0.8005,0.8007,0.801,0.801,0.8009,0.801,0.801,0.8007,0.8008,0.802,0.8022,0.8024,0.8024,0.8006,0.8006,0.7995,0.7995,0.7995]}]]